PST,Max TemperatureF,Mean TemperatureF,Min TemperatureF,Max Dew PointF,MeanDew PointF,Min DewpointF,Max Humidity, Mean Humidity, Min Humidity, Max Sea Level PressureIn, Mean Sea Level PressureIn, Min Sea Level PressureIn, Max VisibilityMiles, Mean VisibilityMiles, Min VisibilityMiles, Max Wind SpeedMPH, Mean Wind SpeedMPH, Max Gust SpeedMPH,PrecipitationIn, CloudCover, Events, WindDirDegrees
2014-1-1,46,44,41,,,,,,,30.39,30.34,30.25,9,6,3,15,8,18,0.01,7,,62
2014-1-2,50,46,41,,,,,,,30.24,30.06,29.96,9,5,1,24,10,29,0.78,7,Rain,188
2014-1-3,49,43,36,,,,,,,30.38,30.26,30.11,7,5,1,16,7,,T,3,,295
2014-1-4,45,37,28,,,,,,,30.47,30.41,30.37,9,5,0,15,8,19,0.00,2,Fog,65
2014-1-5,46,39,31,,,,,,,30.45,30.39,30.26,9,8,6,21,14,26,0.00,0,,67
2014-1-6,42,39,35,,,,,,,30.23,30.18,30.12,9,6,2,18,11,25,0.13,4,Rain,67
2014-1-7,45,42,39,,,,,,,30.12,30.02,29.96,8,3,1,14,7,17,0.84,8,Rain,58
2014-1-8,49,46,43,,,,,,,30.02,29.85,29.71,9,3,1,28,14,34,0.64,8,Rain,185
2014-1-9,47,45,42,,,,,,,30.02,29.90,29.77,6,3,1,32,16,44,0.36,8,Rain,194
2014-1-10,50,48,45,,,,,,,30.14,29.89,29.56,5,3,2,41,19,54,0.72,8,Rain,174
2014-1-11,50,45,40,,,,,,,29.96,29.52,29.39,7,3,0,49,29,63,1.27,8,Rain,208
2014-1-12,49,46,42,,,,,,,30.41,30.16,29.98,6,3,1,30,18,38,0.28,8,Rain,224
2014-1-13,49,48,47,,,,,,,30.67,30.54,30.41,5,3,1,22,13,30,0.05,8,Rain,218
2014-1-14,51,45,39,,,,,,,30.69,30.64,30.58,6,3,0,7,1,8,0.00,6,Fog,61
2014-1-15,50,44,37,,,,,,,30.62,30.56,30.48,8,5,0,13,7,18,0.00,3,Fog,47
2014-1-16,50,46,41,43,41,39,96,85,74,30.47,30.39,30.30,8,6,5,18,13,25,0.00,2,,57
2014-1-17,47,42,37,42,39,36,100,91,82,30.29,30.20,30.14,7,6,5,22,15,26,0.00,2,,62
2014-1-18,46,42,37,45,40,36,100,95,89,30.29,30.22,30.18,7,3,0,15,5,19,0.00,7,Fog,56
2014-1-19,43,39,35,41,38,36,100,95,89,30.27,30.20,30.15,7,4,0,18,9,26,0.00,8,Fog,57
2014-1-20,51,44,37,40,32,1,100,93,86,30.29,30.26,30.22,7,6,5,20,14,27,0.00,3,,66
2014-1-21,48,41,34,45,42,1,100,91,82,30.36,30.30,30.24,6,4,2,16,7,20,0.02,5,Rain,113
2014-1-22,51,47,43,47,44,39,100,90,80,30.42,30.38,30.33,8,5,1,18,6,25,0.01,7,Rain,62
2014-1-23,55,48,40,42,39,36,89,72,55,30.40,30.37,30.32,8,6,2,20,13,26,0.00,0,,59
2014-1-24,58,48,37,39,37,35,92,68,43,30.36,30.30,30.25,8,7,5,21,13,27,0.00,0,,71
2014-1-25,55,44,32,44,36,32,100,83,66,30.38,30.32,30.25,7,4,1,15,7,17,0.00,1,,74
2014-1-26,55,44,32,40,35,32,100,77,54,30.25,30.16,30.08,8,5,1,13,9,17,0.00,1,,71
2014-1-27,42,38,34,40,36,33,100,88,76,30.21,30.16,30.09,6,5,3,14,10,16,0.10,3,Rain,68
2014-1-28,48,45,41,47,44,40,100,97,93,30.21,30.10,29.88,7,3,1,13,9,16,0.64,8,Rain,65
2014-1-29,50,48,45,49,46,41,100,91,82,29.89,29.74,29.58,7,3,1,23,14,32,0.38,8,Rain,210
2014-1-30,48,44,40,42,40,37,100,86,71,29.93,29.90,29.88,8,5,2,26,13,34,0.23,8,Rain,238
2014-1-31,47,43,39,43,40,39,100,88,76,30.17,30.04,29.92,9,5,0,9,4,11,0.04,8,Fog-Rain,60